Wind_Speed
32 31 31 31 33 34 36 37 36 34 32 29 28 29 30 31 32 32 32 32 32 34 35 36 39 41 43 45 47 50 51 52 51 45 42 45 51 55 55 52 49 49 52 55 55 55 55 54 50 46 43 40 38 35 35 37 39 41 42 42 39 36 34 35 35 35 34 32 30
31 31 31 31 33 34 36 38 37 35 32 29 28 28 30 31 32 32 32 32 32 33 34 36 37 39 42 45 47 48 50 52 52 46 42 43 49 53 55 53 50 48 50 54 54 54 54 53 51 47 44 43 43 41 38 38 39 42 43 43 40 37 36 37 38 37 35 33 30
31 30 31 32 33 36 38 39 37 34 31 29 28 28 29 31 32 33 33 33 33 33 35 36 37 38 40 43 46 48 50 52 53 50 45 44 48 52 55 54 51 48 49 51 53 54 54 54 52 49 47 47 47 46 43 40 41 42 43 42 40 39 39 40 40 39 37 34 32
30 31 31 33 35 37 39 40 37 33 30 29 28 28 29 30 32 33 33 33 33 34 35 37 37 38 40 42 45 47 49 51 53 52 50 47 48 51 53 54 51 49 48 50 53 55 56 55 53 51 50 50 50 48 45 42 40 40 41 42 42 42 42 43 43 41 38 35 33
31 31 32 34 36 38 39 39 35 31 29 28 28 28 28 29 31 33 34 34 34 35 36 38 38 39 40 42 44 47 49 50 52 53 52 50 49 49 51 51 50 48 47 48 51 55 57 56 54 52 50 49 48 45 43 40 39 40 41 43 44 44 44 44 43 42 39 36 35
31 32 32 34 36 38 38 37 33 29 27 27 28 28 28 28 30 31 33 34 35 36 37 38 39 40 40 41 43 45 47 49 50 52 53 52 49 48 48 48 48 46 44 44 48 52 55 56 55 52 50 46 43 40 38 38 40 41 44 45 46 46 45 45 44 41 39 37 36
31 32 32 34 36 38 37 35 31 27 26 26 27 28 28 28 28 29 31 33 35 36 37 37 39 41 41 41 41 42 45 47 50 51 52 52 51 49 48 48 47 45 42 41 44 49 53 56 56 53 49 44 40 38 37 38 39 42 45 47 48 47 46 45 43 41 39 38 37
30 31 32 33 35 36 36 33 29 27 26 26 27 28 28 27 27 27 28 30 33 35 36 37 38 40 41 41 40 41 43 46 49 51 52 52 52 51 50 50 49 46 43 42 43 46 50 53 55 54 50 45 42 40 39 38 38 41 44 47 48 47 46 45 42 40 39 38 38
30 30 31 32 34 35 34 31 28 26 26 26 27 27 27 27 26 26 26 28 31 33 35 36 37 39 40 41 41 41 43 45 48 50 51 52 52 52 53 52 50 47 45 43 44 45 47 50 52 52 49 46 44 42 40 37 36 38 41 44 45 45 45 43 41 40 39 39 39
29 30 31 32 33 34 32 30 27 26 25 25 26 26 26 27 27 27 27 28 30 32 34 35 36 36 37 38 40 41 42 44 46 48 50 51 52 53 54 53 50 46 45 45 45 46 46 48 49 49 49 48 46 44 41 38 36 36 38 40 41 42 42 41 40 39 39 39 40
28 30 31 33 33 32 31 29 27 26 25 25 25 26 26 27 27 27 28 29 30 32 34 35 35 34 33 33 36 39 41 43 44 46 48 51 52 54 54 52 48 45 44 45 46 47 47 48 48 49 49 49 48 46 43 39 36 35 36 37 38 38 39 39 39 39 39 40 40
29 30 31 32 32 30 28 28 27 26 26 25 26 26 27 27 28 28 28 30 31 32 33 35 35 34 32 31 32 35 38 41 43 45 48 51 53 54 53 51 47 45 44 44 45 47 48 49 50 51 51 51 50 48 44 40 37 35 35 35 36 36 37 38 38 39 39 39 40
30 31 32 31 30 28 27 27 27 27 27 27 27 27 28 28 28 28 28 30 31 31 32 33 34 34 34 32 32 33 36 39 42 45 48 51 54 55 53 51 48 46 45 44 45 46 48 50 52 53 53 53 52 50 46 42 38 37 37 37 37 37 37 38 38 38 38 39 39
32 32 32 31 29 27 26 26 26 27 27 27 28 28 28 28 27 28 28 29 30 31 31 31 32 33 34 34 34 34 36 38 41 44 46 49 53 55 54 52 49 48 47 45 45 46 48 50 52 54 54 55 54 52 48 44 42 41 42 42 41 40 40 40 39 39 38 38 39
33 33 31 30 29 28 27 26 26 26 26 27 27 28 28 27 27 27 28 29 30 30 31 31 31 32 33 34 34 35 36 38 41 43 45 46 49 53 54 54 52 50 49 47 46 46 48 50 52 54 55 55 55 52 49 46 45 46 47 48 47 45 43 42 41 39 39 39 40
33 32 31 30 30 29 27 26 26 25 25 26 26 26 26 26 26 26 27 28 29 30 30 30 30 31 31 33 34 35 36 37 39 41 43 44 46 49 53 55 54 53 52 50 49 48 48 50 51 53 54 55 55 53 50 48 47 48 50 51 50 50 48 45 43 41 40 39 40
31 31 30 30 30 29 28 26 26 25 24 24 24 24 25 25 25 25 26 27 28 28 29 29 30 30 31 32 33 34 35 36 37 39 41 43 44 47 50 53 55 55 54 53 52 51 50 50 50 51 52 54 53 52 50 49 48 47 48 49 50 50 50 49 46 43 41 40 41
29 29 29 29 29 28 27 26 25 24 23 22 22 22 23 23 24 25 26 26 26 27 27 28 29 30 31 32 32 33 34 34 35 37 39 41 43 45 48 50 53 54 54 54 54 53 52 51 49 49 50 51 52 51 50 48 46 44 43 43 44 46 48 48 47 44 42 41 41
28 28 28 28 28 27 26 26 25 24 23 22 21 21 22 23 24 25 26 26 26 25 26 26 28 29 30 31 32 33 33 34 34 36 37 39 42 44 47 48 49 51 52 53 53 53 53 52 51 50 50 50 50 50 48 46 43 41 38 37 38 40 42 44 44 44 43 42 42
29 29 29 29 28 27 26 26 26 25 23 22 21 21 22 23 24 25 26 26 25 25 25 25 27 28 30 31 32 32 33 33 34 35 37 39 42 44 46 47 48 48 49 49 50 50 50 51 51 51 52 51 50 49 46 44 42 40 38 36 36 37 38 40 42 43 44 45 45
31 32 32 30 29 28 27 26 26 25 24 23 21 21 21 23 24 25 26 26 25 24 24 25 26 28 29 30 31 31 32 33 34 35 37 39 42 44 46 47 47 47 47 47 47 47 48 49 50 52 52 52 50 48 46 44 43 42 41 39 38 38 38 39 41 42 44 45 47
33 33 33 32 30 28 27 26 25 25 24 24 22 22 21 22 23 24 25 25 24 23 23 24 25 26 28 29 29 30 31 31 33 34 35 37 40 42 44 45 46 46 45 45 45 45 46 47 48 50 50 50 48 47 45 44 44 43 43 42 42 41 40 41 41 42 43 44 44
33 32 31 30 29 27 26 25 25 25 25 25 24 22 21 21 22 22 23 23 23 23 22 22 23 24 25 26 27 28 29 30 31 32 33 35 36 38 40 42 43 44 44 44 44 44 45 45 46 47 47 47 46 46 44 43 42 42 43 43 44 43 43 43 43 42 42 41 40
32 31 29 28 27 27 26 26 26 26 26 25 24 23 22 21 21 21 21 22 22 22 22 22 22 22 23 24 25 26 27 28 30 31 32 32 33 34 35 37 38 40 41 42 43 43 44 45 45 46 46 46 46 45 43 41 40 40 41 42 44 44 44 44 44 43 42 41 39
32 31 29 28 28 27 27 26 26 26 26 25 24 23 22 21 21 21 21 21 22 22 22 22 22 22 23 23 24 24 26 27 28 29 30 31 32 32 32 32 33 35 36 38 40 41 42 44 45 45 46 46 46 45 43 40 38 38 39 41 42 43 44 44 45 44 44 42 41
32 31 30 29 28 28 28 27 26 26 25 24 24 23 22 22 21 21 22 22 22 22 22 22 23 23 24 24 24 24 25 26 27 28 29 30 31 31 32 32 32 32 32 33 34 36 38 40 42 44 46 46 46 45 43 40 38 38 39 40 41 43 43 44 45 45 45 45 44
31 30 30 29 29 29 29 28 27 26 25 24 24 23 23 23 23 22 22 22 22 22 22 22 23 24 24 24 25 25 25 26 26 27 28 29 30 31 32 32 33 33 32 32 31 32 33 35 38 41 44 46 46 45 44 42 40 40 40 41 41 42 43 43 44 45 46 46 45
28 28 29 29 29 30 29 28 28 27 26 25 25 24 24 24 23 23 23 22 22 22 22 23 23 23 24 25 25 25 25 26 26 26 27 27 28 30 31 32 32 33 33 33 31 30 30 31 34 37 41 44 46 46 45 43 42 41 41 41 41 41 41 42 43 43 43 42 42
27 27 28 29 30 30 30 29 29 28 27 26 26 25 25 24 24 23 22 22 22 22 22 22 22 23 23 24 25 25 25 25 25 26 26 27 27 28 29 29 30 30 31 31 30 30 30 30 31 34 38 42 44 44 44 42 41 40 39 39 39 38 38 38 38 37 36 35 34
26 27 28 29 29 29 29 29 28 27 26 26 26 26 25 24 23 23 22 22 21 21 20 20 21 22 22 23 23 23 24 24 24 25 25 26 27 27 27 28 28 28 27 27 28 28 28 29 30 32 35 38 40 41 40 39 38 37 36 36 35 35 34 34 33 33 32 32 31
25 27 28 29 29 29 28 27 26 26 25 26 26 26 25 24 23 23 22 21 20 19 19 19 19 20 20 20 20 21 22 22 23 23 24 25 25 26 26 26 26 26 26 26 26 27 27 27 28 29 31 33 35 36 36 35 35 34 34 34 34 34 34 33 33 33 33 33 33
25 26 27 28 28 28 27 26 25 25 25 25 25 25 25 24 23 22 21 20 19 19 18 18 18 18 18 18 18 19 19 20 21 21 22 22 23 23 24 24 25 25 26 26 27 27 27 27 27 27 28 29 30 31 31 31 32 32 33 33 34 34 34 34 33 33 33 33 33
23 24 26 27 27 27 26 26 25 24 24 24 25 25 24 24 22 21 20 20 19 19 18 18 17 17 16 16 16 17 17 18 18 19 19 19 20 20 21 22 23 25 26 28 28 28 28 28 27 27 26 27 27 28 28 29 31 31 32 32 33 33 33 33 33 33 33 33 33
22 23 24 25 26 26 26 25 24 24 23 23 24 24 23 23 22 21 20 20 19 19 18 17 16 15 15 14 14 14 14 15 15 15 16 16 17 17 18 20 22 24 27 28 28 28 28 28 27 27 26 27 27 27 28 30 32 33 33 33 33 33 33 33 34 34 34 35 35
22 23 23 24 25 25 25 25 24 24 23 23 23 23 22 22 21 21 20 20 19 19 18 17 16 15 14 13 13 13 13 13 14 15 15 16 17 18 19 21 23 25 26 26 26 26 26 26 26 26 27 27 28 29 30 32 33 34 35 35 35 36 36 36 37 37 38 38 38
22 22 23 23 24 24 24 24 24 24 23 23 23 22 22 21 21 20 20 19 19 19 18 17 16 15 15 14 14 14 15 17 18 19 20 21 22 22 23 24 25 26 26 26 25 24 24 24 25 26 27 28 30 31 32 34 35 36 37 37 38 39 39 40 40 40 40 40 40
22 22 22 23 23 23 24 24 24 24 24 23 23 22 21 21 20 20 19 19 19 19 18 17 16 16 17 18 19 20 20 20 21 22 23 24 24 25 25 26 27 27 26 25 24 24 23 23 24 25 27 28 30 32 33 34 36 37 38 39 40 40 41 42 42 42 42 41 41
22 22 22 22 23 23 23 24 24 25 24 23 22 21 21 20 19 19 19 18 19 18 18 18 18 19 20 22 23 24 24 23 23 23 23 24 25 26 26 27 27 27 26 25 24 24 23 24 24 25 26 28 29 31 32 34 35 37 38 39 40 41 42 43 43 43 42 41 41
23 22 22 23 23 23 24 24 24 24 24 23 22 21 20 19 19 18 18 18 18 19 19 20 21 22 23 25 25 25 25 25 24 24 24 24 25 25 26 27 26 26 25 24 24 24 24 25 25 26 27 28 29 31 32 33 35 36 38 39 40 41 42 43 43 43 43 41 40
23 23 23 23 23 23 24 24 24 23 23 22 21 21 20 19 19 18 18 18 19 20 22 23 24 25 25 26 26 26 26 25 25 25 25 25 25 25 25 25 26 25 25 25 25 25 26 27 27 28 29 30 30 31 32 33 34 35 37 38 39 40 41 42 42 41 39 38 37
24 23 23 23 23 23 23 23 23 23 22 22 21 21 20 20 19 20 20 22 23 24 24 25 26 26 27 27 27 27 26 26 26 26 26 26 26 25 25 25 26 26 26 26 26 27 28 28 29 29 30 31 32 32 33 33 33 33 35 36 37 38 38 38 39 36 33 32 32
Wind_Direction
225 224 222 220 219 220 221 222 223 224 224 224 220 214 211 210 212 213 215 217 216 214 212 210 208 207 205 203 200 199 196 193 192 195 198 197 197 198 199 200 201 202 203 205 207 210 213 216 220 217 214 215 218 215 207 202 204 206 206 204 204 207 208 207 205 204 205 209 214
224 223 221 220 220 221 222 222 223 224 225 225 222 217 212 210 211 213 215 216 216 214 213 212 211 209 206 204 202 200 198 196 197 199 200 197 197 197 198 199 199 201 203 205 207 210 213 216 219 219 219 222 225 223 215 208 206 206 204 203 205 207 207 205 205 205 207 210 214
222 222 220 220 221 222 222 222 222 223 225 225 223 219 214 211 211 213 215 217 216 214 212 212 212 211 209 207 206 205 204 203 204 205 205 202 200 199 199 199 200 202 204 206 208 210 213 215 218 220 223 225 227 226 220 212 207 204 203 203 206 207 206 204 204 207 210 212 216
221 220 220 220 221 221 222 221 222 223 225 225 223 221 217 214 212 213 215 217 215 213 212 212 213 212 211 210 209 209 209 210 210 210 209 206 203 201 201 201 202 204 206 208 209 211 213 215 217 219 222 224 225 223 219 214 211 207 205 206 208 208 206 204 204 207 211 215 217
219 219 220 221 222 222 222 222 222 223 225 225 223 222 219 217 214 214 214 215 215 214 213 213 213 213 212 211 211 211 212 212 213 212 210 207 204 202 202 202 203 206 208 210 211 212 213 214 216 218 220 220 218 217 216 216 216 213 210 209 211 210 208 205 205 207 211 215 219
218 219 220 222 222 222 221 221 222 224 226 225 223 222 221 220 217 215 214 214 215 215 214 212 213 213 212 211 210 210 211 211 212 211 209 206 204 202 202 203 204 207 209 210 211 212 212 213 214 216 216 214 212 213 216 219 219 216 212 211 211 211 209 207 207 208 212 216 219
217 218 220 221 222 221 221 222 223 225 226 225 224 224 224 223 221 219 217 217 217 216 213 211 212 213 212 210 209 209 209 210 209 209 208 207 205 204 204 205 207 209 209 209 210 210 211 212 213 214 214 212 214 217 221 222 219 214 211 210 210 210 209 208 209 210 213 217 221
217 218 220 221 222 222 223 224 225 225 225 225 225 226 226 227 226 224 223 222 220 217 214 211 212 214 215 213 210 209 209 208 208 208 208 208 208 208 208 208 210 211 211 209 207 207 208 209 211 212 213 215 217 220 222 220 216 211 209 209 209 209 209 209 210 212 215 219 223
217 219 220 222 223 224 224 225 225 225 224 224 225 227 229 230 230 230 229 228 225 220 215 213 214 217 220 219 216 213 210 209 208 208 209 210 211 211 211 211 212 212 210 208 205 205 205 206 208 210 213 216 218 219 219 216 212 209 207 208 209 210 210 211 212 214 217 222 226
216 218 220 222 223 224 224 224 224 224 224 225 226 228 230 232 233 234 235 234 229 220 214 214 216 220 224 226 223 219 215 213 212 211 212 212 212 212 211 210 210 209 207 205 204 203 203 204 206 208 212 215 217 217 216 213 210 208 208 209 210 212 213 215 216 218 221 225 228
217 219 221 222 223 223 222 221 221 222 224 225 227 229 231 233 235 237 238 237 228 220 215 214 216 219 223 227 228 226 223 219 217 216 215 214 213 211 210 208 206 204 203 202 203 203 203 204 206 209 212 215 216 216 214 211 210 210 211 212 214 216 219 220 221 222 225 228 231
218 220 221 222 223 222 220 218 219 221 223 225 227 230 232 234 236 238 239 235 227 221 217 215 216 217 220 223 228 230 228 225 223 221 219 217 214 211 208 205 203 202 201 201 201 202 203 205 207 209 211 213 215 215 214 213 213 213 215 216 218 221 223 225 226 227 228 230 232
218 219 220 222 222 222 220 218 218 219 221 224 227 229 231 234 237 239 238 235 229 223 219 217 217 218 220 223 226 229 231 229 227 225 223 221 217 212 208 205 203 202 201 201 201 201 202 205 207 209 210 211 212 214 215 217 219 220 221 221 222 223 224 226 227 229 231 232 234
217 218 219 221 223 222 220 218 218 219 221 224 226 228 230 232 235 237 238 236 232 226 222 219 218 219 221 224 226 229 231 231 229 228 226 224 220 216 212 208 206 204 202 202 202 202 203 205 206 207 208 209 210 212 216 220 223 226 228 228 226 225 225 225 227 229 231 234 236
216 217 219 221 222 222 220 219 220 221 222 224 225 227 228 230 232 235 237 237 234 229 226 223 221 221 222 224 226 228 230 230 230 228 227 226 224 221 217 214 211 208 206 205 204 204 204 205 206 206 207 208 209 212 215 220 224 227 230 232 232 230 228 227 227 228 231 234 238
217 218 220 221 221 222 222 222 222 223 223 223 224 224 226 227 230 234 236 237 235 232 230 228 227 226 226 226 226 228 229 230 230 229 229 229 228 226 222 219 216 214 211 209 208 208 207 207 207 207 207 208 210 212 216 220 224 227 231 234 235 235 233 231 230 230 231 234 237
219 219 220 220 220 221 222 223 223 223 222 222 222 222 224 226 230 234 237 237 236 235 233 233 233 232 230 228 228 228 229 229 230 231 231 231 230 228 225 222 220 218 216 214 213 212 211 211 210 210 209 210 212 215 218 221 225 229 232 235 237 238 237 235 233 233 233 235 237
219 219 219 219 220 221 221 222 223 223 223 222 222 223 224 227 231 235 237 239 238 237 237 237 237 236 234 231 230 230 230 231 232 232 233 233 232 230 227 224 222 220 219 218 217 217 216 215 214 213 213 214 216 218 221 225 228 231 233 235 236 237 238 237 236 235 235 235 237
217 218 219 219 220 221 222 223 223 224 224 225 227 227 228 229 231 234 237 238 239 239 239 239 239 239 236 234 232 231 231 232 232 233 232 232 231 230 228 226 223 222 221 221 221 221 221 221 220 219 218 218 220 221 224 226 228 229 230 231 232 234 235 235 235 235 234 235 236
213 215 217 218 220 222 223 224 225 225 226 229 233 233 232 231 231 233 234 236 236 237 239 240 241 240 238 235 233 230 230 230 230 230 229 229 228 227 226 226 224 224 223 223 224 224 224 224 224 223 222 221 222 223 225 226 227 226 225 224 225 227 229 230 231 232 233 234 235
210 212 214 217 219 221 223 224 225 226 228 232 236 237 236 233 231 232 232 232 232 234 236 240 241 241 239 237 234 231 229 227 226 225 225 225 224 225 225 226 226 225 225 225 225 225 225 225 224 223 222 221 222 222 223 224 224 223 222 222 222 223 225 227 229 231 232 234 236
208 209 211 214 216 219 221 224 226 227 229 233 237 238 237 234 231 230 230 230 230 231 234 238 242 242 241 239 237 234 231 227 224 222 221 221 222 224 225 226 226 226 226 226 225 225 225 224 223 221 220 220 220 220 221 222 223 223 223 223 224 225 228 230 233 235 237 239 240
207 208 210 213 216 219 222 225 227 229 231 233 236 236 235 233 230 229 228 228 228 230 232 237 241 243 244 243 241 238 235 231 226 222 220 220 221 223 225 226 226 227 227 226 226 225 224 223 222 220 219 218 219 219 220 222 224 226 227 228 229 230 233 235 238 241 243 244 246
208 209 212 215 219 222 225 226 227 229 231 233 234 234 233 231 229 228 227 228 228 229 231 234 238 242 244 245 244 242 239 236 231 227 223 222 221 222 223 224 225 226 226 226 226 226 225 224 223 222 220 220 219 219 221 223 227 230 232 232 233 234 236 238 240 242 244 245 246
210 212 215 217 220 223 224 224 226 228 230 232 232 232 232 231 229 228 228 229 230 231 232 234 236 239 242 243 244 244 242 240 237 233 229 226 224 223 223 223 223 224 224 225 226 226 227 227 226 225 223 221 221 221 223 225 228 231 233 234 234 235 236 238 239 241 242 242 243
212 215 217 217 218 220 222 224 225 227 229 230 231 232 232 232 231 231 231 232 233 234 235 237 238 239 240 241 241 242 242 241 240 238 236 233 230 228 226 225 225 225 225 226 227 228 229 229 229 227 226 224 223 224 225 227 228 230 231 233 234 234 235 237 238 239 240 239 238
212 214 215 214 215 217 220 223 225 227 229 230 232 233 233 233 232 233 233 235 237 238 239 240 241 241 240 240 240 239 239 239 239 240 239 238 236 234 232 231 230 230 230 231 232 233 233 233 231 229 228 226 225 225 226 227 228 228 229 230 232 233 234 236 237 238 238 237 235
211 212 213 213 214 216 219 222 225 227 229 230 232 233 233 233 233 234 235 237 238 239 240 241 241 241 240 239 238 238 238 238 238 239 239 239 239 238 238 237 237 237 237 237 238 240 240 239 236 232 229 227 226 226 226 227 226 227 227 228 229 231 232 234 235 235 235 234 232
210 211 212 214 215 217 219 222 225 227 229 230 232 233 233 233 233 234 235 237 238 238 238 238 238 238 237 237 237 237 237 237 237 238 238 239 239 240 241 241 242 243 244 244 244 245 245 244 241 236 231 228 226 225 225 225 225 225 226 226 227 228 229 231 231 232 233 234 234
211 211 212 214 217 219 221 223 225 226 228 229 230 231 232 232 233 234 235 235 235 235 235 235 235 234 234 234 234 235 235 236 236 237 237 238 239 240 241 242 244 246 248 249 249 249 249 247 245 240 235 230 227 226 226 226 227 227 228 229 230 231 232 234 235 237 239 241 242
211 212 213 215 218 220 223 224 225 226 227 228 228 229 230 232 232 232 232 231 231 230 230 231 232 232 232 231 232 232 234 234 235 236 237 238 239 240 241 242 244 246 249 250 251 251 251 249 247 244 240 236 233 232 232 233 234 235 235 236 237 239 240 242 244 246 247 248 248
212 213 214 216 218 221 223 225 226 226 226 227 228 229 230 230 229 228 227 227 226 226 227 228 229 229 228 228 228 230 231 233 235 236 237 238 239 240 241 241 243 245 247 248 249 250 250 249 248 247 245 244 242 242 242 242 242 241 241 241 242 243 245 247 248 249 250 250 250
212 213 214 216 218 220 223 225 226 226 226 226 227 228 228 227 225 224 223 223 224 224 225 225 225 224 224 223 224 226 229 231 234 236 237 238 239 240 241 242 243 243 244 244 246 247 247 247 248 248 248 247 247 247 246 245 243 241 241 242 243 245 246 248 249 250 250 250 250
212 213 214 215 217 219 222 224 225 225 225 225 225 226 225 224 222 221 221 222 222 223 224 224 223 222 221 221 222 224 227 230 234 236 239 240 241 242 243 243 243 242 242 243 244 245 246 247 248 248 248 247 246 245 243 241 240 240 241 242 244 245 247 248 249 250 250 251 251
211 211 212 214 215 217 219 221 222 222 222 221 222 222 223 222 221 220 220 221 222 223 224 224 224 224 224 224 226 230 233 236 238 239 240 240 241 242 243 243 243 242 242 243 244 245 246 246 247 247 246 245 243 240 239 238 239 241 242 244 245 246 247 249 250 251 252 253 253
211 211 211 211 212 214 215 216 217 218 218 218 219 219 220 221 221 221 221 221 223 224 226 226 227 228 229 230 231 233 236 238 238 236 235 235 235 236 237 238 239 241 242 243 243 244 245 245 245 245 244 242 240 239 238 239 240 241 243 245 246 247 249 250 252 253 254 255 255
212 211 211 210 210 210 211 212 213 214 215 215 216 217 218 220 221 221 221 222 224 226 227 228 229 230 230 229 225 222 222 224 226 227 228 229 229 230 230 232 235 238 241 242 243 244 244 245 245 245 244 242 241 240 240 240 241 242 244 245 246 248 249 251 252 253 254 254 255
213 212 211 210 209 209 209 209 210 211 212 212 213 214 216 218 220 221 221 223 225 228 229 229 229 227 224 222 220 218 218 219 220 222 224 226 227 228 228 230 233 236 238 240 242 243 245 246 247 246 245 245 244 243 243 243 243 244 245 246 247 248 249 250 251 252 252 253 253
214 213 212 212 211 209 208 208 209 209 209 209 210 212 214 217 219 221 222 225 227 228 228 225 220 218 218 218 218 219 220 221 222 223 224 226 227 228 229 230 232 235 237 239 241 243 245 247 248 248 248 248 248 247 247 246 246 246 246 247 247 248 248 249 250 250 250 251 251
217 215 214 214 213 212 211 210 210 209 208 208 209 210 213 216 220 222 223 224 223 221 219 218 216 215 216 218 218 220 222 224 225 226 227 228 229 230 231 233 234 235 237 238 241 243 245 247 249 250 251 251 251 251 250 249 248 248 247 247 246 246 246 247 247 247 247 247 247
220 218 217 216 216 215 214 213 213 212 211 210 211 212 213 216 218 218 218 218 217 216 216 216 215 216 217 218 220 222 224 225 226 228 229 231 232 233 234 235 236 237 238 240 242 243 245 247 248 250 252 252 253 253 253 251 248 246 245 244 244 242 241 242 242 241 239 239 239
Height
1402 1404 1405 1406 1408 1409 1410 1411 1412 1413 1415 1416 1418 1419 1420 1421 1422 1423 1424 1425 1426 1427 1429 1430 1431 1433 1434 1436 1437 1439 1441 1443 1446 1447 1449 1449 1450 1451 1452 1455 1457 1459 1461 1463 1466 1468 1470 1472 1474 1476 1477 1478 1479 1481 1482 1483 1484 1486 1489 1491 1493 1495 1496 1498 1500 1502 1504 1505 1506
1401 1402 1403 1405 1406 1408 1409 1410 1411 1412 1414 1416 1417 1418 1419 1421 1421 1422 1423 1424 1425 1427 1428 1429 1431 1432 1433 1435 1437 1439 1441 1443 1445 1446 1447 1448 1449 1450 1451 1454 1456 1458 1460 1462 1464 1466 1469 1471 1473 1474 1476 1476 1478 1480 1481 1482 1484 1486 1488 1490 1491 1493 1494 1496 1499 1501 1502 1503 1505
1400 1401 1403 1404 1406 1407 1408 1409 1410 1411 1413 1415 1416 1417 1418 1420 1421 1421 1422 1423 1425 1426 1427 1428 1429 1431 1432 1435 1436 1439 1441 1442 1444 1445 1446 1448 1448 1449 1451 1452 1455 1457 1459 1461 1463 1465 1467 1469 1471 1472 1474 1475 1477 1479 1481 1481 1483 1485 1487 1488 1490 1491 1492 1494 1496 1499 1501 1502 1503
1399 1400 1401 1403 1404 1405 1406 1407 1409 1411 1412 1414 1415 1416 1417 1419 1420 1421 1422 1423 1424 1426 1426 1427 1428 1430 1431 1433 1435 1437 1439 1441 1442 1444 1445 1446 1447 1448 1449 1451 1453 1456 1458 1460 1462 1464 1466 1467 1469 1471 1472 1473 1475 1477 1479 1481 1482 1484 1486 1487 1488 1489 1490 1492 1494 1496 1498 1500 1501
1397 1399 1400 1401 1402 1404 1405 1406 1408 1410 1411 1412 1414 1415 1416 1418 1419 1421 1421 1422 1424 1425 1426 1426 1427 1429 1430 1432 1434 1436 1437 1439 1441 1442 1443 1445 1446 1447 1448 1451 1453 1455 1457 1459 1461 1462 1464 1466 1467 1469 1471 1472 1474 1476 1478 1479 1481 1483 1485 1486 1487 1487 1489 1491 1492 1494 1496 1498 1499
1396 1397 1399 1400 1401 1403 1404 1406 1407 1409 1410 1411 1413 1414 1416 1417 1418 1419 1421 1421 1423 1424 1425 1426 1427 1428 1429 1431 1433 1434 1436 1437 1438 1440 1441 1443 1445 1446 1448 1450 1452 1454 1456 1458 1459 1460 1462 1464 1466 1468 1470 1471 1473 1475 1476 1478 1479 1481 1483 1485 1485 1486 1487 1489 1491 1492 1494 1496 1497
1395 1396 1398 1399 1401 1402 1403 1405 1406 1408 1409 1411 1412 1413 1414 1416 1417 1418 1419 1421 1422 1423 1425 1426 1426 1427 1428 1430 1432 1433 1434 1436 1437 1438 1440 1441 1443 1445 1447 1449 1451 1453 1454 1456 1457 1458 1460 1461 1464 1466 1468 1469 1471 1473 1475 1476 1478 1479 1481 1482 1484 1485 1486 1487 1489 1491 1492 1494 1495
1394 1396 1397 1398 1400 1401 1402 1404 1405 1407 1408 1409 1411 1412 1413 1414 1416 1417 1419 1420 1421 1422 1423 1425 1426 1426 1427 1429 1431 1432 1433 1434 1436 1437 1439 1440 1442 1444 1446 1448 1449 1451 1452 1453 1455 1456 1457 1459 1461 1464 1466 1467 1469 1471 1473 1475 1476 1477 1478 1480 1482 1483 1485 1486 1488 1489 1490 1492 1493
1393 1395 1396 1398 1399 1400 1401 1403 1404 1406 1407 1408 1410 1411 1412 1413 1415 1416 1417 1419 1420 1421 1422 1423 1425 1426 1427 1428 1430 1431 1432 1433 1435 1436 1437 1439 1441 1443 1445 1446 1447 1448 1450 1451 1452 1454 1455 1457 1459 1461 1463 1465 1467 1470 1471 1473 1474 1476 1477 1479 1480 1482 1483 1485 1486 1487 1488 1490 1491
1392 1394 1395 1396 1398 1399 1401 1402 1403 1405 1406 1407 1409 1410 1411 1412 1414 1415 1416 1417 1418 1420 1421 1422 1424 1425 1427 1428 1429 1430 1431 1433 1434 1435 1436 1438 1440 1441 1442 1444 1445 1446 1447 1448 1450 1451 1453 1455 1457 1459 1461 1463 1466 1468 1470 1471 1473 1474 1476 1477 1479 1480 1481 1483 1484 1485 1487 1488 1489
1391 1392 1394 1395 1396 1398 1400 1401 1402 1404 1405 1407 1408 1409 1410 1411 1413 1414 1415 1416 1417 1418 1419 1421 1422 1424 1426 1427 1428 1429 1431 1432 1433 1434 1436 1437 1438 1439 1440 1441 1442 1444 1445 1446 1447 1448 1450 1452 1455 1457 1459 1462 1464 1466 1468 1470 1471 1472 1474 1475 1477 1478 1480 1481 1482 1484 1485 1486 1487
1390 1391 1393 1394 1396 1397 1398 1400 1401 1403 1404 1406 1407 1408 1409 1411 1412 1413 1414 1415 1416 1417 1418 1419 1421 1422 1424 1426 1427 1428 1429 1431 1432 1433 1434 1435 1436 1437 1438 1439 1441 1442 1443 1444 1445 1446 1448 1450 1452 1455 1457 1460 1463 1465 1467 1468 1469 1471 1472 1474 1475 1476 1478 1479 1480 1481 1483 1484 1486
1389 1390 1392 1393 1395 1396 1397 1399 1400 1401 1403 1404 1406 1407 1408 1409 1411 1412 1413 1414 1415 1416 1417 1418 1420 1421 1422 1424 1425 1426 1428 1429 1431 1432 1433 1434 1435 1436 1436 1438 1439 1440 1441 1442 1443 1444 1446 1448 1450 1452 1455 1457 1460 1463 1465 1466 1467 1469 1471 1472 1474 1475 1476 1477 1478 1480 1481 1483 1484
1388 1389 1391 1392 1394 1395 1396 1398 1399 1401 1402 1403 1405 1406 1407 1408 1410 1411 1412 1413 1414 1416 1416 1418 1419 1420 1421 1422 1424 1425 1426 1427 1429 1430 1431 1432 1433 1434 1435 1436 1437 1439 1440 1441 1442 1443 1445 1446 1448 1450 1452 1455 1457 1460 1462 1464 1466 1467 1469 1470 1471 1473 1474 1476 1477 1478 1480 1481 1482
1387 1388 1390 1391 1392 1394 1395 1397 1398 1399 1401 1402 1403 1405 1406 1407 1409 1410 1411 1412 1413 1415 1416 1417 1418 1419 1420 1421 1422 1424 1425 1426 1427 1428 1429 1430 1432 1433 1434 1435 1436 1437 1439 1440 1441 1442 1444 1445 1447 1449 1451 1453 1455 1458 1460 1462 1464 1466 1467 1468 1469 1471 1472 1474 1475 1476 1477 1478 1480
1386 1387 1388 1390 1391 1393 1394 1396 1397 1398 1400 1401 1402 1404 1405 1406 1407 1409 1410 1411 1412 1414 1415 1416 1417 1418 1419 1420 1421 1422 1424 1425 1426 1427 1428 1429 1430 1431 1433 1434 1435 1436 1437 1439 1440 1441 1443 1444 1446 1447 1449 1451 1453 1456 1458 1460 1462 1464 1465 1466 1467 1468 1470 1471 1473 1474 1475 1476 1477
1385 1386 1387 1388 1390 1391 1393 1394 1396 1397 1398 1400 1401 1403 1404 1405 1406 1407 1409 1410 1411 1413 1414 1415 1416 1417 1418 1419 1420 1421 1422 1424 1425 1426 1426 1427 1428 1430 1431 1432 1433 1434 1436 1437 1439 1440 1442 1443 1445 1446 1448 1450 1452 1454 1456 1458 1460 1461 1463 1464 1465 1466 1467 1469 1471 1472 1473 1474 1475
1383 1384 1386 1387 1388 1390 1391 1393 1394 1396 1397 1399 1400 1401 1403 1404 1405 1406 1407 1409 1410 1411 1413 1414 1415 1416 1417 1418 1419 1420 1421 1422 1423 1424 1425 1426 1427 1428 1429 1430 1431 1433 1434 1436 1437 1439 1440 1442 1444 1446 1448 1450 1451 1453 1455 1457 1458 1460 1461 1462 1463 1464 1465 1467 1468 1469 1470 1471 1472
1382 1383 1384 1386 1387 1388 1390 1391 1393 1394 1396 1397 1399 1400 1401 1402 1404 1405 1406 1408 1409 1410 1411 1413 1414 1415 1416 1416 1417 1418 1419 1421 1421 1422 1423 1424 1425 1426 1427 1429 1430 1432 1433 1435 1436 1438 1439 1441 1443 1445 1447 1449 1451 1452 1454 1455 1456 1458 1459 1461 1461 1462 1463 1464 1466 1467 1468 1469 1470
1381 1382 1383 1384 1386 1387 1388 1390 1391 1393 1395 1396 1398 1399 1400 1401 1403 1404 1405 1406 1408 1409 1411 1411 1412 1413 1414 1415 1416 1417 1418 1419 1420 1421 1422 1423 1424 1425 1426 1427 1429 1431 1432 1434 1435 1437 1438 1440 1442 1443 1445 1447 1449 1450 1452 1453 1454 1456 1457 1458 1459 1460 1461 1462 1463 1465 1466 1467 1468
1379 1381 1382 1383 1385 1386 1387 1389 1391 1392 1394 1396 1397 1398 1399 1401 1402 1403 1404 1405 1407 1408 1410 1411 1411 1412 1413 1414 1416 1416 1417 1418 1419 1420 1421 1422 1423 1424 1425 1426 1427 1429 1431 1432 1434 1435 1436 1438 1440 1441 1443 1445 1446 1448 1450 1451 1452 1453 1455 1456 1457 1458 1459 1460 1461 1462 1463 1465 1466
1378 1380 1381 1382 1384 1385 1387 1389 1390 1392 1394 1395 1396 1397 1398 1400 1401 1402 1403 1404 1406 1407 1408 1409 1410 1411 1412 1413 1414 1416 1417 1418 1419 1420 1421 1421 1422 1423 1424 1426 1427 1428 1430 1431 1432 1434 1435 1436 1438 1439 1441 1442 1444 1446 1447 1449 1450 1451 1452 1454 1455 1456 1457 1458 1459 1460 1461 1462 1463
1377 1379 1380 1382 1383 1385 1386 1388 1390 1391 1393 1394 1395 1396 1398 1399 1400 1401 1402 1404 1405 1406 1407 1408 1409 1410 1411 1412 1414 1415 1416 1417 1418 1419 1420 1421 1422 1423 1424 1425 1426 1427 1428 1430 1431 1432 1434 1435 1436 1438 1439 1441 1442 1444 1446 1447 1448 1450 1451 1452 1453 1454 1455 1456 1457 1458 1459 1461 1461
1377 1379 1380 1382 1383 1385 1386 1387 1389 1390 1391 1393 1394 1395 1396 1398 1399 1401 1402 1403 1404 1405 1406 1407 1409 1410 1411 1412 1413 1414 1415 1416 1417 1418 1420 1421 1421 1422 1423 1424 1425 1426 1427 1429 1430 1431 1432 1434 1435 1437 1438 1440 1441 1442 1444 1446 1447 1448 1449 1450 1451 1452 1453 1454 1455 1456 1457 1458 1460
1377 1378 1380 1381 1382 1384 1385 1386 1387 1389 1390 1391 1393 1394 1396 1397 1398 1400 1401 1402 1403 1404 1405 1406 1408 1409 1410 1411 1412 1413 1414 1415 1416 1417 1418 1420 1421 1422 1423 1424 1425 1426 1426 1428 1429 1430 1431 1432 1434 1435 1437 1438 1440 1441 1443 1444 1445 1446 1447 1447 1449 1450 1451 1452 1453 1454 1455 1456 1457
1376 1377 1379 1380 1381 1382 1383 1385 1386 1387 1389 1390 1392 1393 1395 1396 1397 1398 1400 1401 1402 1403 1404 1406 1406 1408 1409 1410 1411 1412 1413 1414 1415 1416 1417 1418 1420 1421 1422 1423 1424 1425 1426 1427 1428 1429 1431 1431 1433 1434 1436 1437 1438 1440 1441 1442 1443 1444 1445 1446 1446 1447 1448 1450 1451 1451 1452 1454 1455
1375 1376 1377 1379 1380 1381 1382 1384 1385 1387 1388 1390 1391 1392 1393 1395 1396 1397 1398 1399 1401 1402 1403 1404 1405 1406 1407 1409 1410 1411 1412 1413 1414 1415 1416 1417 1418 1420 1421 1421 1423 1424 1425 1426 1427 1429 1430 1431 1432 1433 1434 1436 1437 1438 1440 1441 1442 1443 1443 1444 1444 1445 1446 1447 1448 1449 1450 1451 1452
1373 1375 1376 1378 1379 1381 1381 1383 1384 1386 1387 1388 1390 1391 1392 1394 1395 1396 1397 1398 1399 1401 1402 1403 1404 1405 1406 1407 1408 1409 1411 1411 1413 1414 1415 1416 1417 1418 1420 1421 1421 1423 1424 1425 1427 1428 1429 1430 1431 1432 1433 1434 1436 1437 1438 1439 1440 1441 1441 1442 1443 1444 1444 1445 1446 1447 1448 1449 1450
1372 1374 1375 1377 1378 1379 1381 1382 1383 1385 1386 1388 1389 1390 1391 1393 1394 1395 1396 1397 1398 1399 1400 1401 1403 1404 1405 1406 1407 1408 1409 1411 1412 1413 1414 1415 1416 1417 1418 1420 1421 1422 1423 1425 1426 1427 1428 1429 1430 1431 1432 1433 1434 1435 1436 1437 1438 1440 1440 1441 1442 1443 1443 1444 1445 1446 1447 1447 1448
1371 1373 1374 1376 1377 1378 1380 1381 1382 1384 1386 1387 1388 1390 1391 1392 1393 1394 1395 1396 1397 1398 1399 1401 1402 1403 1404 1405 1406 1407 1408 1410 1411 1412 1413 1414 1415 1416 1417 1419 1420 1421 1422 1423 1425 1426 1427 1428 1429 1430 1431 1432 1433 1434 1436 1436 1438 1439 1440 1441 1442 1442 1443 1444 1444 1445 1446 1446 1447
1371 1372 1373 1375 1376 1377 1379 1380 1382 1384 1385 1386 1388 1389 1390 1391 1392 1393 1394 1395 1396 1397 1399 1400 1401 1402 1403 1404 1405 1406 1407 1409 1410 1411 1412 1413 1414 1416 1417 1418 1419 1420 1421 1422 1423 1425 1426 1427 1428 1429 1431 1432 1433 1434 1436 1437 1438 1440 1441 1441 1441 1441 1442 1442 1443 1443 1444 1444 1445
1370 1371 1373 1374 1376 1377 1378 1380 1381 1383 1385 1386 1387 1388 1389 1390 1391 1392 1394 1395 1396 1397 1398 1399 1400 1401 1402 1404 1405 1406 1407 1408 1409 1410 1411 1412 1413 1415 1416 1417 1418 1419 1420 1421 1422 1423 1425 1426 1427 1429 1430 1431 1433 1434 1436 1437 1438 1439 1439 1439 1438 1438 1439 1439 1440 1441 1441 1442 1443
1369 1371 1372 1373 1375 1376 1378 1380 1381 1382 1384 1385 1386 1387 1388 1389 1391 1392 1393 1394 1396 1396 1397 1398 1400 1401 1402 1403 1404 1405 1406 1407 1408 1410 1411 1412 1413 1414 1415 1416 1418 1419 1420 1420 1421 1422 1423 1425 1426 1428 1429 1431 1432 1434 1435 1437 1437 1436 1435 1436 1436 1436 1437 1438 1438 1439 1439 1440 1441
1368 1370 1371 1373 1374 1376 1377 1379 1380 1382 1383 1384 1385 1386 1387 1389 1390 1391 1392 1394 1395 1396 1397 1398 1399 1401 1402 1403 1404 1405 1406 1407 1408 1409 1410 1411 1412 1413 1414 1416 1417 1418 1418 1419 1420 1421 1422 1424 1425 1426 1428 1430 1431 1433 1434 1434 1433 1433 1433 1434 1435 1436 1436 1436 1437 1437 1437 1438 1439
1367 1369 1370 1372 1373 1375 1376 1378 1379 1381 1382 1383 1385 1386 1387 1388 1389 1391 1392 1393 1395 1396 1397 1398 1400 1401 1402 1403 1404 1405 1406 1407 1408 1409 1410 1411 1411 1412 1414 1415 1416 1416 1416 1417 1419 1420 1421 1423 1424 1426 1427 1429 1430 1431 1431 1431 1431 1432 1432 1433 1433 1434 1434 1435 1435 1435 1436 1436 1437
1367 1368 1369 1371 1372 1374 1375 1377 1378 1380 1381 1382 1384 1385 1386 1388 1389 1390 1392 1393 1395 1396 1397 1398 1399 1401 1402 1403 1404 1406 1406 1406 1407 1408 1409 1409 1410 1411 1412 1413 1413 1414 1414 1416 1417 1419 1421 1422 1424 1425 1426 1427 1428 1429 1429 1430 1430 1431 1431 1431 1432 1432 1433 1433 1433 1434 1434 1435 1436
1366 1367 1369 1370 1371 1373 1374 1376 1377 1379 1380 1381 1383 1384 1386 1387 1389 1390 1392 1393 1394 1395 1396 1398 1399 1400 1402 1403 1404 1404 1404 1404 1404 1405 1406 1407 1408 1409 1410 1411 1411 1411 1413 1415 1416 1418 1419 1421 1422 1424 1425 1426 1426 1427 1428 1428 1429 1429 1430 1430 1430 1431 1431 1431 1431 1432 1432 1433 1434
1366 1367 1368 1369 1370 1372 1373 1375 1376 1377 1379 1381 1382 1384 1386 1387 1389 1390 1391 1393 1394 1395 1396 1398 1399 1401 1401 1401 1401 1400 1400 1401 1402 1403 1404 1405 1406 1407 1408 1409 1409 1411 1412 1414 1415 1417 1418 1419 1421 1422 1423 1424 1425 1425 1426 1426 1427 1427 1428 1428 1428 1428 1429 1429 1430 1430 1431 1431 1432
1365 1366 1367 1369 1370 1371 1372 1374 1375 1376 1378 1380 1382 1384 1385 1387 1388 1390 1391 1393 1394 1396 1397 1398 1399 1399 1398 1398 1398 1399 1399 1400 1401 1402 1403 1404 1405 1406 1406 1407 1409 1410 1412 1413 1415 1416 1417 1418 1419 1420 1421 1422 1423 1423 1424 1424 1425 1425 1426 1426 1426 1426 1426 1427 1427 1428 1428 1429 1430
1365 1366 1367 1368 1370 1371 1372 1373 1375 1376 1378 1380 1381 1383 1385 1387 1388 1390 1392 1393 1394 1395 1396 1396 1396 1396 1396 1396 1397 1397 1398 1400 1401 1401 1402 1403 1404 1405 1406 1407 1408 1410 1411 1412 1414 1415 1416 1416 1417 1418 1419 1420 1421 1421 1421 1422 1422 1423 1423 1423 1423 1424 1424 1424 1425 1426 1426 1427 1427
1364 1366 1367 1368 1369 1371 1372 1373 1374 1376 1378 1380 1381 1383 1385 1387 1389 1391 1391 1392 1392 1392 1393 1394 1394 1395 1395 1396 1396 1396 1397 1399 1400 1401 1401 1402 1403 1405 1406 1407 1408 1409 1411 1412 1412 1413 1414 1415 1416 1416 1417 1418 1418 1419 1419 1420 1420 1421 1421 1420 1421 1421 1421 1422 1422 1424 1425 1425 1425